Volver al catálogo

THORAD AGENA D DEB

ActivoSSO
NORAD 14467·DEBRIS·🇺🇸 United States

Lanzado Apr 8, 1970 desde Vandenberg Space Force Base

Loading…

Próximos Pases (próximas 24 horas)

TLE

ActualizadoSource: Space-Track

Época: Sep 13, 2026, 12:38 UTC

1 14467U 70025NT  26256.52704955  .00000178  00000-0  28027-3 0  9992
2 14467 100.0273 140.6328 0002116 100.8178  19.2714 13.64621598173848

Sigue THORAD AGENA D DEB en tiempo real con AllMySat

Download on the App Store